Regional Weather Roundup
Issued by NWS Kansas City/Pleasant Hill, MO

Home | Current Version | Previous Version | Graphics & Text | Print | Product List | Glossary Off
Versions: 1 2 3 4 5 6 7 8 9 10 11 12 13 14 15 16 17 18 19 20 21 22 23 24 25 26 27

000
ASUS43 KEAX 191810
RWREAX

WEATHER ROUNDUP FOR EASTERN KANSAS AND NORTHWEST MISSOURI
NATIONAL WEATHER SERVICE KANSAS CITY/PLEASANT HILL MO
100 PM CDT THU APR 19 2018

KSZ040-057-103>105-MOZ028-029-037-043-191900-
...KANSAS CITY METROPOLITAN AREA...

CITY           SKY/WX    TMP DP  RH WIND       PRES   REMARKS
K.C. INTL      MOSUNNY   53  30  41 N7        30.45F
6HR MIN TEMP:  29; 6HR MAX TEMP:  53;

K.C. DOWNTOWN  SUNNY     52  30  43 N10G17    30.45F
6HR MIN TEMP:  34; 6HR MAX TEMP:  53;

LEES SUMMIT    MOSUNNY   52  32  46 NE15G21   30.45F
6HR MIN TEMP:  32; 6HR MAX TEMP:  52;

OLATHE - IXD   MOSUNNY   51  31  46 VRB7G17   30.47S
6HR MIN TEMP:  32; 6HR MAX TEMP:  51;

OLATHE - OJC   SUNNY     49  30  48 VRB6      30.45F
6HR MIN TEMP:  33; 6HR MAX TEMP:  50;

LAWRENCE       SUNNY     53  30  41 NE6       30.47F

$$

MOZ001>008-011>017-020>025-030>033-038>040-044>046-053-054-191900-
...NORTHERN AND CENTRAL MISSOURI...

CITY           SKY/WX    TMP DP  RH WIND       PRES   REMARKS
ST. JOSEPH     SUNNY     55  31  39 N15G21    30.46F
6HR MIN TEMP:  24; 6HR MAX TEMP:  55;

MOSBY          CLEAR     50  30  46 N9G16     30.45F
WARRENSBURG    MOSUNNY   52  30  43 N7G17     30.45F
WHITEMAN AFB   MOSUNNY   50  30  46 NW12      30.41S
6HR MIN TEMP:  33; 6HR MAX TEMP:  50;

CLINTON        MOSUNNY   50  32  50 N12       30.45S
SEDALIA        MOSUNNY   51  31  46 NE7       30.45F
6HR MIN TEMP:  33; 6HR MAX TEMP:  52;

WARSAW         NOT AVBL
CHILLICOTHE      N/A     53  33  46 VRB6G18   30.47R
6HR MIN TEMP:  31; 6HR MAX TEMP:  53;

KIRKSVILLE     SUNNY     51  31  46 VRB6G16   30.45S
6HR MIN TEMP:  29; 6HR MAX TEMP:  51;


$$

MOZ041-047>049-056>058-063>065-088>090-097-191900-
...EASTERN AND SOUTHERN MISSOURI...

CITY           SKY/WX    TMP DP  RH WIND       PRES   REMARKS
ST. LOUIS INTL PTSUNNY   48  33  56 N13G18    30.42S
6HR MIN TEMP:  36; 6HR MAX TEMP:  48;

SPIRIT OF STL  PTSUNNY   49  32  52 N8        30.42S
COLUMBIA       MOSUNNY   50  29  44 N12G22    30.43S
JEFFERSON CITY MOSUNNY   50  29  44 VRB5      30.44S
ROLLA          MOSUNNY   47  29  49 N12       30.41S
OSAGE BEACH    PTSUNNY   48  28  46 N9G20     30.43F
SPRINGFIELD    SUNNY     50  30  46 NE9G18    30.40F
BRANSON        MOSUNNY   48  27  43 N9G17     30.40S
JOPLIN         SUNNY     50  30  46 NE14      30.44F
WEST PLAINS    SUNNY     49  29  46 N9G17     30.39S

$$

IAZ060-094-KSZ022-034>040-054-083-096-NEZ052-066-093-191900-
...KANSAS...SOUTHEAST NEBRASKA AND IOWA...

CITY           SKY/WX    TMP DP  RH WIND       PRES   REMARKS
TOPEKA         SUNNY     54  32  43 N7G18     30.47F
6HR MIN TEMP:  33; 6HR MAX TEMP:  54;

MANHATTAN      SUNNY     52  28  39 E5        30.48S
EMPORIA        SUNNY     51  27  39 NE10G20   30.46F
CHANUTE        SUNNY     53  27  36 NE8G22    30.45F
WICHITA        MOSUNNY   54  28  36 N20       30.44F
OMAHA          MOSUNNY   52  29  41 VRB3      30.47F
LINCOLN        SUNNY     53  27  36 VRB3      30.49F
FALLS CITY     SUNNY     53  27  36 NE8       30.46F
LAMONI         SUNNY     51  30  44 NE8G16    30.45F
DES MOINES     MOSUNNY   49  27  42 N10       30.49R

$$





USA.gov is the U.S. government's official web portal to all federal, state and local government web resources and services.